#timestamp,LO_Frequency,Hit,StdDev 
1635231615.6,286047004.0,Y
1635231635.4,286047000.5,P
1635231655.3,286047001.0,N
1635231675.1,286047000.6,N
1635231676.0,286047000.6,N
1635231695.8,286047000.5,N
1635231715.7,286047000.2,N
1635231735.5,286047002.4,Y
1635231755.3,286047000.4,P
1635231775.2,286047000.8,P
1635231795.9,286046998.2,P
1635231815.7,286046998.6,N
1635231835.6,286046998.1,N
1635231855.4,286047002.8,N
1635231875.2,286047002.2,N
1635231895.1,286047003.7,N
1635231896.0,286047003.7,N
1635231915.8,286047005.9,N
1635231935.6,286047003.0,N
1635231955.5,286047005.8,N
1635231975.3,286047005.8,N
1635231995.1,286047004.5,N
1635232015.9,286047005.2,N
1635232035.7,286047005.3,N
1635232055.5,286047005.4,N
1635232075.4,286047007.5,N
1635232095.2,286047006.9,N
1635232115.0,286047006.6,N
1635232115.9,286047006.6,N
1635232135.8,286047006.6,N
1635232155.6,286047008.6,N
1635232175.4,286047007.9,N
1635232195.3,286047006.4,N
1635232215.1,286047006.2,N
1635232216.0,286047006.2,N
1635232235.8,286047009.1,Y
1635232255.7,286047003.7,P
1635232275.5,286047003.9,P
1635232295.3,286047001.7,P
1635232315.2,286047002.8,N
1635232335.9,286047000.2,N
1635232355.7,286046999.7,N
1635232375.6,286047001.4,N
1635232395.4,286047001.8,N
1635232415.2,286047001.7,N
1635232435.1,286046999.8,N
1635232436.0,286046999.8,N
1635232455.8,286047000.5,N
1635232475.6,286047002.5,N
1635232495.5,286047004.2,N
1635232515.3,286047001.3,N
1635232535.1,286047001.4,N
1635232555.9,286047004.2,N
1635232575.7,286047000.0,N
1635232595.5,286047004.4,N
1635232615.4,286047001.4,N
1635232635.2,286047004.0,N
1635232655.0,286047006.9,Y
1635232655.9,286047006.9,P
1635232675.8,286047003.5,N
1635232695.6,286047001.6,N
1635232715.4,286047003.2,N
1635232735.3,286047003.8,N
1635232755.1,286047005.6,Y
1635232775.8,286047000.6,P
1635232795.7,286046998.2,N
1635232815.5,286046999.1,N
1635232835.3,286046998.2,N
1635232855.2,286046999.3,N
1635232875.0,286046998.5,N
1635232875.9,286046998.5,N
1635232895.7,286046999.3,N
1635232915.6,286046997.3,N
1635232935.4,286046998.6,N
1635232955.2,286046998.3,N
1635232975.1,286046998.8,N
1635232976.0,286046998.8,N
1635232995.8,286046998.6,N
1635233015.6,286047000.5,N
1635233035.5,286047000.1,N
1635233055.3,286047000.6,N
1635233075.1,286047000.3,N
1635233095.9,286047000.3,N
1635233115.7,286047000.3,N
1635233135.5,286047000.6,N
1635233155.4,286047000.7,N
1635233175.2,286047000.8,N
1635233195.0,286047000.8,N
1635233195.9,286047000.8,N
1635233215.8,286047001.1,N
1635233235.6,286047000.8,N
1635233255.4,286047001.1,N
1635233275.3,286047000.2,N
1635233295.1,286046999.3,N
1635233315.8,286046998.9,N
1635233335.7,286046998.8,N
1635233355.5,286046997.0,N
1635233375.3,286046997.0,N
1635233395.2,286046999.0,N
1635233415.0,286046994.9,Y
1635233415.9,286046994.9,P
1635233435.7,286046995.7,N
1635233455.6,286046994.5,N
1635233475.4,286046993.8,Y
1635233495.2,286046996.7,P
1635233515.1,286046999.3,N
1635233516.0,286046999.3,N
1635233535.8,286046996.9,N
1635233555.6,286046997.2,N
1635233575.5,286046996.7,N
1635233595.3,286046997.2,N
1635233615.1,286046995.6,Y
1635233635.9,286046998.2,P
1635233655.7,286047000.9,N
1635233675.5,286047000.6,N
1635233695.4,286047002.8,N
1635233715.2,286046999.9,N
1635233735.0,286047000.5,N
1635233735.9,286047000.5,N
1635233755.8,286047000.2,N
1635233775.6,286046998.6,N
1635233795.4,286046999.6,N
1635233815.3,286046997.2,N
1635233835.1,286046998.1,N
1635233855.8,286046997.1,N
1635233875.7,286046997.3,N
1635233895.5,286046997.6,N
1635233915.3,286046997.9,N
1635233935.2,286046996.1,N
1635233955.0,286046995.7,N
1635233955.9,286046995.7,N
1635233975.7,286046995.4,N
1635233995.6,286046993.3,Y
1635234015.4,286046996.4,P
1635234035.2,286046995.4,P
1635234055.1,286046994.4,P
1635234056.0,286046994.4,Y
1635234075.8,286046999.6,P
1635234095.7,286046995.4,N
1635234115.5,286046995.6,N
1635234135.3,286046997.9,N
1635234155.2,286046994.9,Y
1635234175.9,286046999.2,P
1635234195.7,286046999.2,N
1635234215.6,286046997.3,N
1635234235.4,286046997.6,N
1635234255.2,286046997.2,N
1635234275.1,286046995.1,Y
1635234276.0,286046995.1,P
1635234295.8,286046997.5,N
1635234315.6,286046994.9,P
1635234335.5,286046994.5,Y
1635234355.3,286046997.6,P
1635234375.1,286046997.7,P
1635234395.9,286046997.8,P
1635234415.7,286046997.7,Y
1635234435.5,286047001.0,P
1635234455.4,286047000.2,N
1635234475.2,286047000.2,N
1635234495.0,286046999.8,N
1635234495.9,286046999.8,N
1635234515.8,286046998.5,N
1635234535.6,286046998.7,N
1635234555.4,286046999.4,N
1635234575.3,286046994.9,Y
1635234595.1,286046997.2,P
1635234596.0,286046997.2,N
1635234615.8,286046998.0,N
1635234635.7,286046997.9,N
1635234655.5,286046997.2,Y
1635234675.3,286046998.7,P
1635234695.2,286046999.3,N
1635234715.9,286046996.8,P
1635234735.7,286047011.9,Y
1635234755.6,286046997.4,P
1635234775.4,286046995.0,P
1635234795.2,286046995.3,P
1635234815.1,286046995.5,Y
1635234816.0,286046995.5,P
1635234835.8,286046997.3,P
1635234855.6,286046996.8,P
1635234875.5,286046996.7,Y
1635234895.3,286047000.2,P
1635234915.1,286047000.7,N
1635234935.9,286047000.5,N
1635234955.7,286046999.3,N
1635234975.5,286046996.7,N
1635234995.4,286046996.5,N
1635235015.2,286046997.4,N
1635235035.0,286046995.5,N
1635235035.9,286046995.5,N
1635235055.8,286046998.0,N
1635235075.6,286046996.1,N
1635235095.4,286046996.0,N
1635235115.3,286046995.4,N
1635235135.1,286046996.4,N
1635235155.8,286046993.6,Y
1635235175.7,286046997.5,P
1635235195.5,286046996.8,P
